STARLINK-5705, 55472

Orbit data source: Space-Track

STARLINK-5705, 55472 is a payload satellite owned by SpaceX/Seattle (US) in LEO that was launched on Thu, 02 Feb 2023 UTC via an FALCON 9 launch vehicle from the Air Force Eastern Test Range (AFETR). Payload-class satellites include a variety of spacecraft equipped with specific instruments for various scientific and technological missions. These include communications satellites like Starlink; space stations such as the ISS; scientific satellites like the Hubble; Earth observation satellites from companies like Planet Labs, Umbra, and HawkEye 360; GPS; miniature CubeSats for education and research; and military/defense satellites.

Loading next visibility...
Identifier
55472, 2023-015Z
Orbit
LEO
Country
Flag of USUS
Related business
Manufacturer
SpaceX/Seattle
Mission
Operational Commercial Communications
Bus & Motor
STARLINK, Unknown motor
Mass
305 kg wet, ~290 kg dry
Launch date (UTC)
2023-02-02 (3 years ago)
Launch vehicle
FALCON 9
Launch site
Air Force Eastern Test Range (AFETR)
Object type
Payload
Rocket body
Debris
Shape & HBR
Box + 1 Pan, 10.1 m
Radar Cross Section
13.562 m², Large (>1 m²)

Expand to show TLE details & history
Last TLE update: 23 hours ago

TLE from 23 hours ago
0 STARLINK-5705
1 55472U 23015Z   25303.30384524  .00001874  00000-0  15367-3 0  9991
2 55472  43.0048 302.0613 0001355 267.3603  92.7084 15.02552197151284
Epoch: 2025-10-30T07:17Z
TLE epoch observation values (Epoch: 2025-10-30T07:17:32.228Z)
Latitude
-0.00005°
Longitude
153.81241°
Altitude
558.853 km
Speed
7.584 km/s
True Right ascension
20h 08m 14s
True Declination
0° 00' 00"
Sunlit
Object was in daylight at epoch
Visualization orbit readout
Latitude
Unknown
Longitude
Unknown
Altitude
Unknown
Speed
Unknown
Apparent Right ascension
Unknown
Apparent Declination
Unknown
Sunlit
N/A
Visualization observer readout
Local Sidereal Time
01:27:59
Azimuth
Unknown
Elevation
Unknown
Doppler factor
Unknown
Orbital elements
Apogee altitude
561.893 km
Perigee altitude
560.013 km
Semi-major axis
6,939.09 km
Eccentricity
0.00014
Inclination
43.0048°
RAAN
302.0613°
Arg. of periapsis
267.3603°
True anomaly
92.72391°
Mean anomaly
92.7084°
Eccentric anomaly
92.71615°
Mean motion
3.75482 °/min
Orbital period
95.88 mins
BSTAR
0.00015367
Loading maneuver chart data...
Computing Atmospheric mass density...
Loading historical data...
Loading historical data...
Loading historical data...
Loading historical data...
Loading historical data...
Loading historical data...
Loading historical data...

Documentation

Showing up to 5 results
|